Weather in Cheremshan

Russia / Republic of Tatarstan     54°39′16″N   51°30′20″E
temp.,
°C
wind,
m/s
gust,
m/s
humid.,
%
clouds,
%
prec.,
mm/h
press.,
hPa
HPBL,
m
4 march, thu
thu400:00−7wnw4994100 0.1 1005450
03:00−11wsw479799 0.1 1005114
06:00−11sw5119675 0.1 1003241
09:00−8sw7119487 0.3 1002384
12:00−4sw81392100 0.4 1000639
15:00−2sw101695100 1.0 997993
18:00−1wsw91697100 1.6 9941010
21:00−1w81582100 2.3 9961081
5 march, fri
fri500:00−5wsw7158475 0.0 997540
03:00−6wsw4109087 0.0 999327
06:00−6w3795100 0.0 1001216
09:00−6wnw3494100 0.4 1002328
12:00−5nw3589100 0.1 1004441
15:00−7nnw359185 0.1 1006285
18:00−13nw23910 0.0 100820
21:00−16wnw12870 0.0 101120
6 march, sat
sat600:00−16sw22900 0.0 101120
03:00−17ssw22920 0.0 101220
06:00−17ssw239611 0.0 101221
09:00−13ssw239539 0.0 1012125
12:00−9sw249190 0.0 1011291
15:00−8sw239395 0.1 1010247
18:00−11wsw2396100 0.1 101030
21:00−14wnw349797 0.3 101171
7 march, sun
sun700:00−16nw3497100 0.1 101190
03:00−19nw3498100 0.2 101262
06:00−23wnw239954 0.0 101320
09:00−19wsw349650 0.0 1015172
12:00−15sw469472 0.0 1014284
15:00−13ssw599072 0.0 1012369
18:00−15s6139346 0.0 1010318
21:00−14s8159473 0.1 1007439
8 march, mon
mon800:00−11s91793100 1.1 1002682
03:00−7ssw91793100 1.8 998970
06:00−5ssw101694100 1.4 996962
09:00−5wsw61083100 2.8 997826
12:00−5sw7108135 0.0 998967
15:00−6wsw8128768 0.5 9991189
18:00−10wsw5138317 0.1 1001323
21:00−12wsw513879 0.1 1004294